Zurück zum Katalog

USA 15

AktivMilitärLEO
NORAD 16591·PAYLOAD·🇺🇸 United States

Gestartet Feb 9, 1986 von Vandenberg Space Force Base

Loading…

Nächste Überflüge (nächste 24 Stunden)

TLE

AktuellSource: Space-Track

Epoche: Sep 14, 2026, 05:57 UTC

1 16591U 86014A   26257.24792196  .00008987  00000-0  48903-3 0  9992
2 16591  63.3057 352.8432 0647911 114.6421 252.3528 14.17184696120548

Verfolge USA 15 in Echtzeit mit AllMySat

Download on the App Store